Tracking 31027 objects as of 19-Jul-2025
HD Live streaming from Space Station
objects crossing your sky now

RTU MIREA 1

Track RTU MIREA 1 now!
10-day predictions


NORAD ID: 61785
Int'l Code: 2024-199BC
Perigee: 457.3 km
Apogee: 478.7 km
Inclination: 97.3 °
Period: 93.8 minutes
Semi major axis: 6839 km
RCS: Unknown
Launch date: November 4, 2024
Source: Commonwealth of Independent States (former USSR) (CIS)
Launch site: VOSTOCHNY COSMODROME (VOSTO)
Your satellite tracking list
COSMOS 1656
Track 1 satellite(s)




NASA's NSSDC Master Catalog

Two Line Element Set (TLE):
1 61785U 24199BC  25199.86738394  .00015622  00000-0  46015-3 0  9991
2 61785  97.3493  68.2833 0015650  57.9415 302.3346 15.35008077 82964
Source of the keplerian elements: AFSPC